Amarillo, TX

12:34 PM CST on November 21, 2019 (GMT -0600)
Amarillo International

Weather History for KAMA - May, 2019

Change the Weather History Date:

Thursday, May 23, 2019

  Actual Average Record
Temperature  
Mean Temperature 68 °F 68 °F  
Max Temperature 81 °F 81 °F 102 °F (2000)
Min Temperature 54 °F 54 °F 39 °F (1893)
Degree Days  
Heating Degree Days 0 2  
Month to date heating degree days 109 74  
Since 1 July heating degree days 4092 4162  
Cooling Degree Days 3 4  
Month to date cooling degree days 31 61  
Year to date cooling degree days 47 82  
Growing Degree Days 17 (Base 50)    
Moisture  
Dew Point 59 °F    
Average Humidity 77    
Maximum Humidity 100    
Minimum Humidity 53    
Precipitation  
Precipitation 0.53 in 0.09 in 2.45 in (2015)
Month to date precipitation 2.28 1.50  
Year to date precipitation 6.37 5.57  
Snow  
Snow 0.00 in 0.00 in T in (1991)
Month to date snowfall 0.0 0.2  
Since 1 July snowfall 8.1 17.8  
Snow Depth 0.00 in    
Sea Level Pressure  
Sea Level Pressure 29.80 in    
Wind  
Wind Speed 15 mph (North)    
Max Wind Speed 31 mph    
Max Gust Speed 40 mph    
Visibility 6 miles    
Events Rain , Thunderstorm    
T = Trace of Precipitation, MM = Missing Value Source: NWS Daily Summary

Daily Weather History Graph

Daily Weather History Graph

Search for Another Location

Airport or City:

Astronomy

May. 23, 2019 Rise Set
Actual Time 6:37 AM CDT 8:49 PM CDT
Civil Twilight 6:08 AM CDT 9:18 PM CDT
Nautical Twilight 5:33 AM CDT 9:54 PM CDT
Astronomical Twilight 4:55 AM CDT 10:32 PM CDT
Moon 12:33 AM CDT (5/23) 10:43 AM CDT (5/23)
Length of Visible Light 15h 09m
Length of Day
14h 12m
Waning Gibbous, 77% of the Moon is Illuminated
May 23
Waning Gibbous
May 26
Last Quarter
Jun 3
New
Jun 10
First Quarter
Jun 17
Full

Hourly Weather History & Observations

Time (CDT) Temp. Heat Index Dew Point Humidity Pressure Visibility Wind Dir Wind Speed Gust Speed Precip Events Conditions
12:53 AM 59.0 °F - 42.1 °F 53% 29.70 in 10.0 mi ESE 11.5 mph - N/A   Clear
1:53 AM 66.0 °F - 52.0 °F 60% 29.69 in 10.0 mi SSE 13.8 mph - N/A   Clear
2:53 AM 69.1 °F - 61.0 °F 75% 29.69 in 8.0 mi SSE 15.0 mph - N/A   Clear
3:53 AM 69.1 °F - 64.0 °F 84% 29.70 in 7.0 mi SSE 16.1 mph - N/A   Clear
4:33 AM 69.1 °F - 64.0 °F 84% 29.87 in 6.0 mi South 13.8 mph - N/A   Haze
4:53 AM 71.1 °F - 64.9 °F 81% 29.70 in 7.0 mi SSE 20.7 mph 25.3 mph N/A   Overcast
5:53 AM 70.0 °F - 64.9 °F 84% 29.70 in 7.0 mi SSE 16.1 mph - N/A   Overcast
6:44 AM 70.0 °F - 64.9 °F 84% 29.88 in 7.0 mi SE 15.0 mph - N/A   Overcast
6:53 AM 70.0 °F - 64.9 °F 84% 29.72 in 6.0 mi SE 15.0 mph - N/A   Haze
7:24 AM 70.0 °F - 64.9 °F 84% 29.89 in 5.0 mi SE 15.0 mph - N/A   Haze
7:35 AM 70.0 °F - 64.9 °F 84% 29.89 in 5.0 mi SE 16.1 mph - N/A   Haze
7:53 AM 70.0 °F - 64.9 °F 84% 29.73 in 5.0 mi ESE 15.0 mph - N/A   Haze
8:53 AM 69.1 °F - 66.0 °F 90% 29.75 in 5.0 mi SE 12.7 mph - N/A   Overcast
9:28 AM 71.1 °F - 64.9 °F 81% 29.89 in 7.0 mi SE 19.6 mph 26.5 mph N/A   Overcast
9:53 AM 71.1 °F - 64.9 °F 81% 29.76 in 7.0 mi SE 17.3 mph - N/A   Overcast
10:09 AM 71.1 °F - 64.9 °F 81% 29.89 in 6.0 mi SE 18.4 mph - N/A   Haze
10:53 AM 73.0 °F - 66.0 °F 79% 29.76 in 6.0 mi SSE 23.0 mph 28.8 mph N/A   Haze
11:36 AM 75.9 °F - 66.9 °F 74% 29.87 in 6.0 mi SE 23.0 mph 34.5 mph N/A   Haze
11:53 AM 75.9 °F - 66.9 °F 74% 29.73 in 7.0 mi SSE 24.2 mph 28.8 mph N/A   Mostly Cloudy
12:39 PM 79.0 °F - 66.9 °F 66% 29.87 in 7.0 mi SE 21.9 mph 31.1 mph N/A   Scattered Clouds
12:53 PM 79.0 °F - 66.9 °F 66% 29.74 in 7.0 mi SE 24.2 mph 32.2 mph N/A   Mostly Cloudy
1:22 PM 81.0 °F 83.3 °F 66.9 °F 62% 29.86 in 7.0 mi SSE 23.0 mph 29.9 mph N/A   Mostly Cloudy
1:53 PM 68.0 °F - 57.0 °F 68% 29.74 in 8.0 mi NNW 12.7 mph 25.3 mph N/A   Mostly Cloudy
2:17 PM 66.9 °F - 57.0 °F 70% 29.85 in 10.0 mi WNW 13.8 mph 19.6 mph N/A   Overcast
2:30 PM 68.0 °F - 57.0 °F 68% 29.86 in 10.0 mi NW 19.6 mph - N/A   Overcast
2:53 PM 68.0 °F - 57.9 °F 70% 29.72 in 10.0 mi NW 15.0 mph - N/A   Overcast
3:53 PM 71.1 °F - 59.0 °F 66% 29.71 in 10.0 mi NNW 12.7 mph - N/A   Mostly Cloudy
4:46 PM 66.0 °F - 57.0 °F 73% 29.80 in 10.0 mi NNW 15.0 mph 26.5 mph N/A Thunderstorm Mostly Cloudy
4:53 PM 64.9 °F - 57.0 °F 75% 29.67 in 10.0 mi NNW 17.3 mph 25.3 mph N/A Thunderstorm Mostly Cloudy
5:03 PM 64.0 °F - 57.0 °F 78% 29.82 in 10.0 mi WNW 17.3 mph - N/A Thunderstorm Thunderstorm
5:25 PM 57.0 °F - 54.0 °F 89% 29.83 in 1.2 mi NW 26.5 mph 33.4 mph 0.02 in Rain , Thunderstorm Light Thunderstorms and Rain
5:27 PM 55.9 °F - 54.0 °F 93% 29.83 in 0.5 mi NW 24.2 mph 33.4 mph 0.05 in Rain , Thunderstorm Heavy Thunderstorms and Rain
5:53 PM 55.9 °F - 54.0 °F 93% 29.72 in 2.5 mi NNW 13.8 mph - 0.39 in Rain , Thunderstorm Light Thunderstorms and Rain
6:05 PM 55.9 °F - 54.0 °F 93% 29.84 in 2.5 mi NNW 15.0 mph - 0.07 in Rain , Thunderstorm Rain
6:11 PM 55.9 °F - 54.0 °F 93% 29.86 in 3.0 mi NW 12.7 mph - 0.11 in Rain Light Rain
6:19 PM 55.9 °F - 54.0 °F 93% 29.86 in 8.0 mi NW 13.8 mph - 0.11 in Thunderstorm Thunderstorm
6:33 PM 55.0 °F - 53.1 °F 93% 29.86 in 6.0 mi NW 13.8 mph - 0.11 in Thunderstorm Overcast
6:53 PM 54.0 °F - 53.1 °F 97% 29.76 in 4.0 mi NNW 10.4 mph - 0.11 in Rain , Thunderstorm Light Thunderstorms and Rain
7:07 PM 55.0 °F - 53.1 °F 93% 29.86 in 2.5 mi North 10.4 mph 18.4 mph 0.03 in Rain , Thunderstorm Light Thunderstorms and Rain
7:15 PM 54.0 °F - 53.1 °F 97% 29.83 in 5.0 mi North 12.7 mph - 0.03 in Thunderstorm Mostly Cloudy
7:33 PM 54.0 °F - 52.0 °F 93% 29.86 in 8.0 mi ENE 12.7 mph - 0.03 in Thunderstorm Mostly Cloudy
7:53 PM 55.0 °F - 53.1 °F 93% 29.75 in 10.0 mi NNE 4.6 mph - 0.03 in   Scattered Clouds
8:53 PM 55.9 °F - 54.0 °F 93% 29.75 in 5.0 mi NNW 8.1 mph - N/A   Partly Cloudy
9:51 PM 55.4 °F - 53.6 °F 94% 29.89 in 5.0 mi NW 15.0 mph - N/A   Mostly Cloudy
9:53 PM 55.0 °F - 53.1 °F 93% 29.78 in 5.0 mi NW 13.8 mph - N/A   Mostly Cloudy
10:15 PM 55.0 °F - 53.1 °F 93% 29.91 in 3.0 mi NW 13.8 mph - N/A   Overcast
10:37 PM 54.0 °F - 53.1 °F 97% 29.93 in 4.0 mi NW 15.0 mph - N/A   Overcast
10:53 PM 54.0 °F - 53.1 °F 97% 29.84 in 3.0 mi NW 12.7 mph - N/A   Overcast
11:35 PM 55.0 °F - 53.1 °F 93% 29.97 in 2.5 mi NW 11.5 mph - N/A   Overcast
11:43 PM 55.0 °F - 53.1 °F 93% 29.98 in 4.0 mi NNW 6.9 mph - N/A   Overcast
11:53 PM 55.0 °F - 53.1 °F 93% 29.83 in 2.5 mi North 9.2 mph - N/A   Overcast